Regional Weather Roundup
Issued by NWS

Home | Current Version | Previous Version | Text Only | Print | Product List | Glossary Off
Versions: 1 2 3 4 5 6 7 8 9 10 11 12 13 14 15 16 17 18 19 20 21 22 23 24 25 26 27 28 29 30 31 32 33 34 35 36 37 38 39 40 41 42 43 44 45 46 47 48 49 50

000
ASUS43 KLOT 171410
RWRIL

ILLINOIS REGIONAL WEATHER ROUNDUP
NATIONAL WEATHER SERVICE CHICAGO/ROMEOVILLE IL
900 AM CDT THU APR 17 2014

NOTE: "FAIR" INDICATES FEW OR NO CLOUDS BELOW 12,000 FEET WITH NO
SIGNIFICANT WEATHER AND/OR OBSTRUCTIONS TO VISIBILITY.

* THESE STATIONS ARE NOT UNDER NWS QUALITY CONTROL. THEY ALSO MAY NOT
  REPORT WEATHER SUCH AS PRECIPITATION OR FOG.

ILZ001-002-007-009-015-016-024-171500-
NORTHWEST ILLINOIS

CITY           SKY/WX    TMP DP  RH WIND       PRES   REMARKS
MOLINE         CLOUDY    41  33  73 W13       30.17R
STERLING*      CLOUDY    46  37  71 W18       30.15R
SAVANNA*       PTSUNNY   41  34  75 W12       30.16R
$$

ILZ003-004-008-010-011-017-018-171500-
NORTH CENTRAL ILLINOIS

CITY           SKY/WX    TMP DP  RH WIND       PRES   REMARKS
ROCKFORD       CLOUDY    47  36  65 SW14G21   30.14R
FREEPORT*      CLOUDY    44  38  82 SW13G18   30.14R
ROCHELLE*      CLOUDY    46  36  69 SW16      30.14S
DE KALB*       PTSUNNY   45  34  64 W16       30.14R
PERU*          MOSUNNY   49  37  65 W16       30.16R
$$

ILZ005-006-012>014-019>023-171500-
NORTHEAST ILLINOIS

CITY           SKY/WX    TMP DP  RH WIND       PRES   REMARKS
CHICAGO-OHARE  MOSUNNY   49  29  46 SW18      30.14S
CHICAGO-MIDWAY PTSUNNY   48  30  49 S17G26    30.16R
AURORA         SUNNY     48  32  53 SW15      30.15R
LANSING*       MOSUNNY   48  30  49 S17G23    30.19S
WAUKEGAN       MOSUNNY   49  30  48 SW21G28   30.11S
DUPAGE AIRPORT SUNNY     48  31  51 SW14      30.14R
KANKAKEE*      SUNNY     50  33  53 S15       30.20R
WHEELING       SUNNY     49  30  48 S17G24    30.14S
MORRIS*        SUNNY     49  29  46 SW14      30.16S
ROMEOVILLE*    SUNNY     48  32  52 SW17G24   30.16S
NORTHERLY ISL    N/A     47  27  46 S16         N/A
$$

LMZ740>746-171500-
SOUTHERN LAKE MICHIGAN

STATION/POSITION SKY/WX   TEMP    WIND        PRES    VSBY  WAVE
                          AIR SEA DIR/SP/G                  HT/PER
                          (F)     (DEG/KT/KT) (MB)    (MI)  (FT/S)
WAUKEGAN HARBOR            47     210/ 17/ 22 1020.3F
HARRISON CRIB              46     190/ 24/ 29   N/A
BURNHAM HARBOR             47     220/ 16/ 20   N/A
CALUMET HARBOR             47     190/ 12/ 19 1022.2R
MICHIGAN CITY              47     160/ 16/ 23   N/A
$$

ILZ025>027-034>036-040-047-049-050-058-095>099-171500-
WEST-CENTRAL ILLINOIS

CITY           SKY/WX    TMP DP  RH WIND       PRES   REMARKS
QUINCY         PTSUNNY   45  36  70 NW14      30.20R
GALESBURG*     CLOUDY    42  37  81 W13       30.19R
MACOMB*        CLOUDY    44  37  77 NW10      30.22R
JACKSONVILLE*  SUNNY     51  32  48 SW12      30.21R
PITTSFIELD*    MOSUNNY   49  36  60 NW7       30.22R
$$

ILZ028>032-037-038-041>044-048-051>054-059>061-171500-
CENTRAL ILLINOIS

CITY           SKY/WX    TMP DP  RH WIND       PRES   REMARKS
PONTIAC        SUNNY     52  34  50 SW16G22   30.18R
BLOOMINGTON    SUNNY     48  31  52 SW17G23   30.20R
DECATUR        MOSUNNY   52  33  48 SW18      30.22R
PEORIA         MOSUNNY   50  36  58 NW8       30.18R
LACON*         MOSUNNY   48  36  64 W9        30.17R
LINCOLN*       MOSUNNY   54  33  45 SW8       30.20F
SPRINGFIELD    SUNNY     51  32  48 SW8       30.22R
TAYLORVILLE    MOSUNNY   48  34  57 S15G21    30.22R
$$

ILZ033-039-045-046-055>057-062-063-171500-
EAST-CENTRAL ILLINOIS

CITY           SKY/WX    TMP DP  RH WIND       PRES   REMARKS
CHAMPAIGN      SUNNY     52  34  50 S15       30.22R
RANTOUL*       SUNNY     53  32  44 SW14G20   30.22R
MATTOON        MOSUNNY   50  34  54 S10       30.24R
PARIS*         SUNNY     52  34  50 S12       30.26R
$$

ILZ079-100>102-171500-
SOUTHWEST ILLINOIS

CITY           SKY/WX    TMP DP  RH WIND       PRES   REMARKS
ALTON          PTSUNNY   50  34  53 S14       30.23R
BELLEVILLE     SUNNY     51  38  60 S8        30.24R
CAHOKIA*       SUNNY     54  35  48 S8        30.23R
SPARTA*        SUNNY     50  34  53 S9        30.27R
$$

ILZ064>066-069>071-074>076-080>082-084>086-088>090-092>094-171500-
SOUTH-CENTRAL ILLINOIS

CITY           SKY/WX    TMP DP  RH WIND       PRES   REMARKS
CARBONDALE     PTSUNNY   53  38  56 S7        30.28R
CAIRO*           N/A     55  39  53 S10       30.30R
MARION         MOSUNNY   54  37  54 S8        30.29R
MT. VERNON     SUNNY     52  32  46 SW8       30.28R
CENTRALIA*       N/A     52  35  51 SW10      30.26R
SALEM*         SUNNY     53  37  54 S10       30.26S
METROPOLIS*    SUNNY     55  34  44 S8        30.30R
$$

ILZ067-068-072-073-078-083-087-091-171500-
SOUTHEAST ILLINOIS

CITY           SKY/WX    TMP DP  RH WIND       PRES   REMARKS
FAIRFIELD*     SUNNY     52  37  58 S9        30.28S
HARRISBURG*    SUNNY     52  37  56 S5        30.31R
ROBINSON*      SUNNY     53  37  55 S14       30.29R
CARMI*         SUNNY     54  40  59 S10       30.30S
$$

ABBREVIATIONS USED IN REMARKS
   TC - TEMPERATURE IN CELSIUS
  WCI - WIND CHILL INDEX
   HX - HEAT INDEX
  VSB - VISIBILITY
$$




USA.gov is the U.S. government's official web portal to all federal, state and local government web resources and services.